TimeMST,TemperatureF,Dew PointF,Humidity,Sea Level PressureIn,VisibilityMPH,Wind Direction,Wind SpeedMPH,Gust SpeedMPH,PrecipitationIn,Events,Conditions,WindDirDegrees,DateUTC
12:56 AM,21.9,8.1,55,30.37,10.0,SSE,3.5,-,N/A,,Clear,150,2013-01-22 07:56:00
1:56 AM,17.1,5.0,59,30.39,10.0,ESE,3.5,-,N/A,,Clear,110,2013-01-22 08:56:00
2:56 AM,17.1,5.0,59,30.40,10.0,Calm,Calm,-,N/A,,Clear,0,2013-01-22 09:56:00
3:56 AM,12.9,1.9,62,30.41,10.0,Calm,Calm,-,N/A,,Clear,0,2013-01-22 10:56:00
4:56 AM,14.0,3.9,64,30.43,10.0,Calm,Calm,-,N/A,,Clear,0,2013-01-22 11:56:00
5:56 AM,12.0,3.0,67,30.48,10.0,Calm,Calm,-,N/A,,Clear,0,2013-01-22 12:56:00
6:56 AM,14.0,5.0,67,30.51,10.0,Calm,Calm,-,N/A,,Clear,0,2013-01-22 13:56:00
7:56 AM,16.0,6.1,65,30.52,10.0,SE,8.1,-,N/A,,Clear,130,2013-01-22 14:56:00
8:56 AM,23.0,10.0,58,30.51,10.0,ESE,9.2,-,N/A,,Clear,110,2013-01-22 15:56:00
9:56 AM,28.9,10.9,47,30.50,10.0,ESE,6.9,-,N/A,,Clear,110,2013-01-22 16:56:00
10:56 AM,35.1,12.9,40,30.50,10.0,East,4.6,-,N/A,,Clear,100,2013-01-22 17:56:00
11:56 AM,42.1,12.9,31,30.43,10.0,Calm,Calm,-,N/A,,Clear,0,2013-01-22 18:56:00
12:56 PM,46.9,12.0,24,30.38,10.0,Calm,Calm,-,N/A,,Clear,0,2013-01-22 19:56:00
1:56 PM,51.1,12.9,22,30.35,10.0,NE,4.6,-,N/A,,Clear,40,2013-01-22 20:56:00
2:56 PM,53.1,10.0,18,30.33,10.0,Calm,Calm,-,N/A,,Clear,0,2013-01-22 21:56:00
3:56 PM,55.0,10.0,17,30.34,10.0,Calm,Calm,-,N/A,,Clear,0,2013-01-22 22:56:00
4:56 PM,53.1,10.9,19,30.33,10.0,North,4.6,-,N/A,,Clear,360,2013-01-22 23:56:00
5:56 PM,46.0,10.9,24,30.37,10.0,North,3.5,-,N/A,,Clear,10,2013-01-23 00:56:00
6:56 PM,30.9,3.9,32,30.42,10.0,WSW,3.5,-,N/A,,Clear,240,2013-01-23 01:56:00
7:56 PM,27.0,3.0,36,30.43,10.0,SW,5.8,-,N/A,,Clear,230,2013-01-23 02:56:00
8:56 PM,26.1,3.9,39,30.43,10.0,SW,5.8,-,N/A,,Clear,220,2013-01-23 03:56:00
9:56 PM,26.1,5.0,41,30.43,10.0,Calm,Calm,-,N/A,,Clear,0,2013-01-23 04:56:00
10:56 PM,24.1,5.0,44,30.43,10.0,South,3.5,-,N/A,,Clear,190,2013-01-23 05:56:00
11:56 PM,21.0,3.9,48,30.42,10.0,Calm,Calm,-,N/A,,Clear,0,2013-01-23 06:56:00